Time,TemperatureF,DewpointF,PressureIn,WindDirection,WindDirectionDegrees,WindSpeedMPH,WindSpeedGustMPH,Humidity,HourlyPrecipIn,Conditions,Clouds,dailyrainin,SoftwareType,DateUTC
2015-07-31 00:03:00,82.0,36.0,-100.00,North,-9999,0.0,0.0,19,-99.99,,,-99.99,,2015-07-31 07:03:00,
2015-07-31 00:12:00,81.0,39.0,-100.00,North,-9999,0.0,0.0,22,-99.99,,,-99.99,,2015-07-31 07:12:00,
2015-07-31 00:22:00,81.0,39.0,-100.00,North,-9999,0.0,0.0,22,-99.99,,,-99.99,,2015-07-31 07:22:00,
2015-07-31 00:33:00,80.0,37.0,-100.00,North,-9999,0.0,0.0,21,-99.99,,,-99.99,,2015-07-31 07:33:00,
2015-07-31 00:43:00,80.0,35.0,-100.00,North,-9999,0.0,0.0,20,-99.99,,,-99.99,,2015-07-31 07:43:00,
2015-07-31 00:53:00,82.0,34.0,-100.00,North,-9999,0.0,0.0,18,-99.99,,,-99.99,,2015-07-31 07:53:00,
2015-07-31 01:03:00,81.0,39.0,-100.00,North,-9999,0.0,0.0,22,-99.99,,,-99.99,,2015-07-31 08:03:00,
2015-07-31 01:12:00,81.0,37.0,-100.00,North,-9999,0.0,-999.0,21,-99.99,,,-99.99,,2015-07-31 08:12:00,
2015-07-31 01:22:00,79.0,38.0,-100.00,North,-9999,0.0,0.0,23,-99.99,,,-99.99,,2015-07-31 08:22:00,
2015-07-31 01:33:00,79.0,40.0,-100.00,North,-9999,0.0,0.0,25,-99.99,,,-99.99,,2015-07-31 08:33:00,
2015-07-31 01:43:00,77.0,37.0,-100.00,North,-9999,0.0,0.0,24,-99.99,,,-99.99,,2015-07-31 08:43:00,
2015-07-31 01:53:00,77.0,37.0,-100.00,North,-9999,0.0,0.0,24,-99.99,,,-99.99,,2015-07-31 08:53:00,
2015-07-31 02:02:00,77.0,39.0,-100.00,North,-9999,0.0,0.0,26,-99.99,,,-99.99,,2015-07-31 09:02:00,
2015-07-31 02:12:00,77.0,38.0,-100.00,North,-9999,0.0,0.0,25,-99.99,,,-99.99,,2015-07-31 09:12:00,
2015-07-31 02:23:00,77.0,36.0,-100.00,North,-9999,0.0,0.0,23,-99.99,,,-99.99,,2015-07-31 09:23:00,
2015-07-31 02:33:00,76.0,41.0,-100.00,North,-9999,0.0,0.0,28,-99.99,,,-99.99,,2015-07-31 09:33:00,
2015-07-31 02:43:00,75.0,40.0,-100.00,North,-9999,0.0,0.0,28,-99.99,,,-99.99,,2015-07-31 09:43:00,
2015-07-31 02:53:00,76.0,37.0,-100.00,North,-9999,0.0,0.0,24,-99.99,,,-99.99,,2015-07-31 09:53:00,
2015-07-31 03:02:00,74.0,41.0,-100.00,North,-9999,0.0,0.0,30,-99.99,,,-99.99,,2015-07-31 10:02:00,
2015-07-31 03:12:00,74.0,41.0,-100.00,North,-9999,0.0,0.0,30,-99.99,,,-99.99,,2015-07-31 10:12:00,
2015-07-31 03:23:00,75.0,45.0,-100.00,North,-9999,0.0,-999.0,34,-99.99,,,-99.99,,2015-07-31 10:23:00,
2015-07-31 03:33:00,73.0,41.0,-100.00,North,-9999,0.0,0.0,31,-99.99,,,-99.99,,2015-07-31 10:33:00,
2015-07-31 03:43:00,74.0,40.0,-100.00,North,-9999,0.0,0.0,29,-99.99,,,-99.99,,2015-07-31 10:43:00,
2015-07-31 03:53:00,74.0,41.0,-100.00,North,-9999,0.0,0.0,31,-99.99,,,-99.99,,2015-07-31 10:53:00,
2015-07-31 04:03:00,73.0,41.0,-100.00,North,-9999,0.0,0.0,31,-99.99,,,-99.99,,2015-07-31 11:03:00,
2015-07-31 04:12:00,72.0,39.0,-100.00,North,-9999,0.0,0.0,30,-99.99,,,-99.99,,2015-07-31 11:12:00,
2015-07-31 04:23:00,72.0,39.0,-100.00,North,-9999,0.0,0.0,30,-99.99,,,-99.99,,2015-07-31 11:23:00,
2015-07-31 04:35:00,72.0,38.0,-100.00,North,-9999,0.0,0.0,29,-99.99,,,-99.99,,2015-07-31 11:35:00,
2015-07-31 04:44:00,72.0,38.0,-100.00,North,-9999,0.0,0.0,29,-99.99,,,-99.99,,2015-07-31 11:44:00,
2015-07-31 04:53:00,72.0,39.0,-100.00,North,-9999,0.0,0.0,30,-99.99,,,-99.99,,2015-07-31 11:53:00,
2015-07-31 05:03:00,73.0,39.0,-100.00,North,-9999,0.0,0.0,29,-99.99,,,-99.99,,2015-07-31 12:03:00,
2015-07-31 05:12:00,72.0,41.0,-100.00,North,-9999,0.0,0.0,32,-99.99,,,-99.99,,2015-07-31 12:12:00,
2015-07-31 05:23:00,72.0,38.0,-100.00,North,-9999,0.0,0.0,29,-99.99,,,-99.99,,2015-07-31 12:23:00,
2015-07-31 05:33:00,72.0,39.0,-100.00,North,-9999,0.0,0.0,30,-99.99,,,-99.99,,2015-07-31 12:33:00,
2015-07-31 05:43:00,71.0,39.0,-100.00,North,-9999,0.0,0.0,31,-99.99,,,-99.99,,2015-07-31 12:43:00,
2015-07-31 05:53:00,71.0,40.0,-100.00,North,-9999,0.0,0.0,33,-99.99,,,-99.99,,2015-07-31 12:53:00,
2015-07-31 06:03:00,71.0,40.0,-100.00,North,-9999,0.0,0.0,33,-99.99,,,-99.99,,2015-07-31 13:03:00,
2015-07-31 06:12:00,71.0,40.0,-100.00,North,-9999,0.0,0.0,33,-99.99,,,-99.99,,2015-07-31 13:12:00,
2015-07-31 06:23:00,71.0,39.0,-100.00,North,-9999,0.0,0.0,31,-99.99,,,-99.99,,2015-07-31 13:23:00,
2015-07-31 06:33:00,71.0,40.0,-100.00,North,-9999,0.0,0.0,32,-99.99,,,-99.99,,2015-07-31 13:33:00,
2015-07-31 06:43:00,72.0,40.0,-100.00,North,-9999,0.0,0.0,31,-99.99,,,-99.99,,2015-07-31 13:43:00,
2015-07-31 07:02:00,72.0,39.0,-100.00,North,-9999,0.0,0.0,30,-99.99,,,-99.99,,2015-07-31 14:02:00,
2015-07-31 07:13:00,71.0,41.0,-100.00,North,-9999,0.0,-999.0,34,-99.99,,,-99.99,,2015-07-31 14:13:00,
2015-07-31 07:23:00,72.0,41.0,-100.00,North,-9999,0.0,0.0,32,-99.99,,,-99.99,,2015-07-31 14:23:00,
2015-07-31 07:35:00,72.0,38.0,-100.00,North,-9999,0.0,0.0,29,-99.99,,,-99.99,,2015-07-31 14:35:00,
2015-07-31 07:43:00,72.0,38.0,-100.00,North,-9999,0.0,0.0,29,-99.99,,,-99.99,,2015-07-31 14:43:00,
2015-07-31 07:53:00,72.0,42.0,-100.00,North,-9999,0.0,0.0,34,-99.99,,,-99.99,,2015-07-31 14:53:00,
2015-07-31 08:03:00,73.0,44.0,-100.00,North,-9999,0.0,0.0,36,-99.99,,,-99.99,,2015-07-31 15:03:00,
2015-07-31 08:12:00,73.0,41.0,-100.00,North,-9999,0.0,0.0,31,-99.99,,,-99.99,,2015-07-31 15:12:00,
2015-07-31 08:23:00,74.0,41.0,-100.00,North,-9999,0.0,0.0,30,-99.99,,,-99.99,,2015-07-31 15:23:00,
2015-07-31 08:33:00,74.0,41.0,-100.00,North,-9999,0.0,0.0,31,-99.99,,,-99.99,,2015-07-31 15:33:00,
2015-07-31 08:43:00,75.0,42.0,-100.00,North,-9999,0.0,0.0,31,-99.99,,,-99.99,,2015-07-31 15:43:00,
2015-07-31 08:53:00,75.0,41.0,-100.00,North,-9999,0.0,0.0,30,-99.99,,,-99.99,,2015-07-31 15:53:00,
2015-07-31 09:03:00,76.0,41.0,-100.00,North,-9999,0.0,0.0,29,-99.99,,,-99.99,,2015-07-31 16:03:00,
2015-07-31 09:13:00,76.0,40.0,-100.00,North,-9999,0.0,0.0,27,-99.99,,,-99.99,,2015-07-31 16:13:00,
2015-07-31 09:23:00,78.0,41.0,-100.00,North,-9999,0.0,0.0,26,-99.99,,,-99.99,,2015-07-31 16:23:00,
2015-07-31 09:33:00,78.0,40.0,-100.00,North,-9999,0.0,0.0,26,-99.99,,,-99.99,,2015-07-31 16:33:00,
2015-07-31 09:56:00,79.0,41.0,-100.00,North,-9999,0.0,0.0,26,-99.99,,,-99.99,,2015-07-31 16:56:00,
2015-07-31 10:03:00,79.0,41.0,-100.00,North,-9999,0.0,0.0,26,-99.99,,,-99.99,,2015-07-31 17:03:00,
2015-07-31 10:13:00,82.0,42.0,-100.00,North,-9999,0.0,0.0,24,-99.99,,,-99.99,,2015-07-31 17:13:00,
2015-07-31 10:23:00,84.0,39.0,-100.00,North,-9999,0.0,0.0,20,-99.99,,,-99.99,,2015-07-31 17:23:00,
2015-07-31 10:35:00,84.0,42.0,-100.00,North,-9999,0.0,0.0,23,-99.99,,,-99.99,,2015-07-31 17:35:00,
2015-07-31 10:43:00,84.0,42.0,-100.00,North,-9999,0.0,0.0,23,-99.99,,,-99.99,,2015-07-31 17:43:00,
2015-07-31 10:53:00,85.0,41.0,-100.00,North,-9999,0.0,0.0,21,-99.99,,,-99.99,,2015-07-31 17:53:00,
2015-07-31 11:03:00,86.0,39.0,-100.00,North,-9999,0.0,0.0,19,-99.99,,,-99.99,,2015-07-31 18:03:00,
2015-07-31 11:13:00,85.0,39.0,-100.00,North,-9999,0.0,0.0,20,-99.99,,,-99.99,,2015-07-31 18:13:00,
2015-07-31 11:23:00,86.0,40.0,-100.00,North,-9999,0.0,0.0,20,-99.99,,,-99.99,,2015-07-31 18:23:00,
2015-07-31 11:33:00,86.0,40.0,-100.00,North,-9999,0.0,0.0,20,-99.99,,,-99.99,,2015-07-31 18:33:00,
2015-07-31 11:44:00,86.0,38.0,-100.00,North,-9999,0.0,0.0,18,-99.99,,,-99.99,,2015-07-31 18:44:00,
2015-07-31 11:53:00,85.0,39.0,-100.00,North,-9999,0.0,0.0,20,-99.99,,,-99.99,,2015-07-31 18:53:00,
2015-07-31 12:03:00,87.0,38.0,-100.00,North,-9999,0.0,0.0,18,-99.99,,,-99.99,,2015-07-31 19:03:00,
2015-07-31 12:12:00,87.0,38.0,-100.00,North,-9999,0.0,0.0,18,-99.99,,,-99.99,,2015-07-31 19:12:00,